This is the latest recevied weather packets stored in our database for station/object AA4OM-2. If no packets are shown the sender has not sent any weather packets the latest 10 day(s).
| Time | Temp. | Humidity | Pressure | Rain* | Wind** | Luminosity | Snow |
|---|---|---|---|---|---|---|---|
| 1777811859 | 5° C | 99% | 1022.5 hPa | 0 mm | - | 36 W/m² | - |
| 1777811252 | 3.89° C | 99% | 1022.6 hPa | 0 mm | - | 34 W/m² | - |
| 1777810950 | 3.89° C | 99% | 1022.4 hPa | 0 mm | - | 33 W/m² | - |
| 1777810646 | 3.33° C | 99% | 1022.6 hPa | 0 mm | - | 33 W/m² | - |
| 1777810343 | 2.78° C | 99% | 1022.5 hPa | 0 mm | - | 30 W/m² | - |
| 1777810039 | 2.78° C | 99% | 1022.4 hPa | 0 mm | - | 29 W/m² | - |
| 1777809737 | 2.22° C | 99% | 1022.4 hPa | 0 mm | - | 27 W/m² | - |
| 1777809434 | 2.22° C | 99% | 1022.4 hPa | 0 mm | - | 26 W/m² | - |
| 1777808526 | 1.67° C | 99% | 1022.2 hPa | 0 mm | - | 20 W/m² | - |
| 1777808223 | 1.67° C | 99% | 1022.4 hPa | 0 mm | - | 19 W/m² | - |
| 1777807922 | 1.67° C | 99% | 1022 hPa | 0 mm | - | 16 W/m² | - |
| 1777807316 | 1.11° C | 99% | 1022.1 hPa | 0 mm | - | 12 W/m² | - |
| 1777807012 | 1.11° C | 99% | 1021.8 hPa | 0 mm | - | 9 W/m² | - |
| 1777806399 | 1.67° C | 99% | 1021.6 hPa | 0 mm | - | 5 W/m² | - |
| 1777805793 | 1.11° C | 99% | 1021.9 hPa | 0 mm | - | 2 W/m² | - |
| 1777804582 | 1.11° C | 99% | 1021.6 hPa | 0 mm | - | 0 W/m² | - |
| 1777803977 | 1.67° C | 99% | 1021.6 hPa | 0 mm | - | 0 W/m² | - |
| 1777803674 | 1.67° C | 99% | 1021.5 hPa | 0 mm | - | 0 W/m² | - |
| 1777803370 | 1.67° C | 99% | 1021.4 hPa | 0 mm | - | 0 W/m² | - |
| 1777803068 | 1.67° C | 99% | 1021.3 hPa | 0 mm | - | 0 W/m² | - |
| 1777802765 | 1.67° C | 99% | 1021.3 hPa | 0 mm | - | 0 W/m² | - |
| 1777802463 | 1.67° C | 99% | 1021.5 hPa | 0 mm | - | 0 W/m² | - |
| 1777801858 | 1.67° C | 99% | 1021.6 hPa | 0 mm | - | 0 W/m² | - |
| 1777801555 | 1.67° C | 99% | 1021.5 hPa | 0 mm | - | 0 W/m² | - |
| 1777800948 | 1.67° C | 99% | 1021.3 hPa | 0 mm | - | 0 W/m² | - |
* Rain latest hour (hover to see other rain measurements)
** Current wind speed in m/s (hover to see current wind gust speed)